Other Public Products
Issued by NWS Charleston, SC

Current Version | Previous Version | Graphics & Text | Print | Product List | Glossary On
Versions: 1 2 3 4 5 6 7 8 9 10 11 12 13 14 15 16 17 18 19 20 21 22 23 24 25 26 27 28 29 30 31 32 33 34 35 36 37 38 39 40 41 42 43 44 45 46 47 48 49 50
485
FPUS82 KCHS 221212
OPUCHS

TEST...KCHS/KSAV Gateway Observations...TEST
National Weather Service Charleston SC
700 AM EST WED NOV 22 2017

NOTE: "fair" indicates few or no clouds below 12,000 feet with no
significant weather and/or obstructions to visibility.

SCZ050-WAZ558-NCZ071-TXZ119-213-PAZ071-DCZ001-FLZ074-172-MI076-
NYZ176-178-MAZ016-IL014-TNZ027-NJZ106-GAZ044-MD014-221300-

...Gateway Observations for Charleston International...

CITY           SKY/WX    TMP DP  RH WIND       PRES   REMARKS
Chas Airport   CLOUDY    60  59  96 NW7       29.97R
6HR MIN TEMP:  60; 6HR MAX TEMP:  62; 6HR PCP:  0.01;

Seattle        CLOUDY    58  57  97 S7        29.95S
6HR MIN TEMP:  56; 6HR MAX TEMP:  59; 6HR PCP:  0.11;

Charlotte      PTCLDY    46  46 100 NW6       29.98R
6HR MIN TEMP:  44; 6HR MAX TEMP:  53; 6HR PCP: TRACE;

Dallas DFW     PTCLDY    43  19  38 N16       30.32R
6HR MIN TEMP:  43; 6HR MAX TEMP:  55;

Dallas Love    CLEAR     43  18  36 N14       30.34R
6HR MIN TEMP:  43; 6HR MAX TEMP:  56;

Philladelphia  LGT RAIN  51  49  92 W6        29.91F
6HR MIN TEMP:  51; 6HR MAX TEMP:  54; 6HR PCP:  0.08;

Wash National  CLOUDY    51  49  92 S3        29.94R
6HR MIN TEMP:  50; 6HR MAX TEMP:  54; 6HR PCP:  0.01;

Baltimore      CLOUDY    48  48 100 W3        29.92S
6HR MIN TEMP:  48; 6HR MAX TEMP:  53; 6HR PCP:  0.01;

Miami          PTCLDY    72  70  93 CALM      29.93R
6HR MIN TEMP:  70; 6HR MAX TEMP:  73;

Detroit        CLOUDY    31  18  58 NW13      30.23R WCI  21
6HR MIN TEMP:  31; 6HR MAX TEMP:  35; 6HR PCP: TRACE;

Newark         LGT RAIN  51  45  79 CALM      29.91R
6HR MIN TEMP:  45; 6HR MAX TEMP:  52; 6HR PCP:  0.03;

Laguardia      LGT RAIN  53  48  83 CALM      29.91R
6HR MIN TEMP:  51; 6HR MAX TEMP:  54; 6HR PCP: TRACE;

J F K          RAIN      51  51 100 SE5       29.92F FOG
6HR MIN TEMP:  47; 6HR MAX TEMP:  52; 6HR PCP:  0.11;

Boston Logan   LGT RAIN  49  48  97 S5        29.95F
6HR MIN TEMP:  44; 6HR MAX TEMP:  50; 6HR PCP: TRACE;

Ft. Lauderdale PTCLDY    70  70 100 N5        29.93R
6HR MIN TEMP:  70; 6HR MAX TEMP:  74;

Chicago O`Hare PTCLDY    23  15  71 NW8       30.32R WCI  14
6HR MIN TEMP:  23; 6HR MAX TEMP:  27;

Chicago Midway PTCLDY    24  15  68 NW9       30.32R WCI  14
6HR MIN TEMP:  24; 6HR MAX TEMP:  28;

Houston Bush   PTCLDY    57  54  89 N10       30.17R
6HR MIN TEMP:  57; 6HR MAX TEMP:  60;

Houston Hobby  MOCLDY    59  54  83 N15       30.15R
6HR MIN TEMP:  58; 6HR MAX TEMP:  62;

Nashville      PTCLDY    33  25  72 N9G18     30.25R WCI  25
6HR MIN TEMP:  33; 6HR MAX TEMP:  45;

Atlanta        PTCLDY    49  46  90 NW12      30.01S
6HR MIN TEMP:  49; 6HR MAX TEMP:  56; 6HR PCP: TRACE;


$$

GAZ044-118-TXZ119-213-NCZ071-DCZ001-MDZ014-506-PAZ021-071-NJZ106-
NYZ176-178-MAZ106-OHZ011-021-055-MIZ076-KYZ091-ILZ014-INZ047-
MNZ060-ONZ431-221300-

...Gateway Observations for Savannah International...

CITY           SKY/WX    TMP DP  RH WIND       PRES   REMARKS
Savannah Arpt  FOG       59  59 100 NW8       30.00R VSB 1/2
6HR MIN TEMP:  59; 6HR MAX TEMP:  61;

Atlanta        PTCLDY    49  46  90 NW12      30.01S
6HR MIN TEMP:  49; 6HR MAX TEMP:  56; 6HR PCP: TRACE;

Charlotte      PTCLDY    46  46 100 NW6       29.98R
6HR MIN TEMP:  44; 6HR MAX TEMP:  53; 6HR PCP: TRACE;

Dallas DFW     PTCLDY    43  19  38 N16       30.32R
6HR MIN TEMP:  43; 6HR MAX TEMP:  55;

Houston Bush   PTCLDY    57  54  89 N10       30.17R
6HR MIN TEMP:  57; 6HR MAX TEMP:  60;

Wash National  CLOUDY    51  49  92 S3        29.94R
6HR MIN TEMP:  50; 6HR MAX TEMP:  54; 6HR PCP:  0.01;

Wash Dulles    CLOUDY    46  43  89 W3        29.96R
6HR MIN TEMP:  45; 6HR MAX TEMP:  54;

Baltimore      CLOUDY    48  48 100 W3        29.92S
6HR MIN TEMP:  48; 6HR MAX TEMP:  53; 6HR PCP:  0.01;

Philadelphia   LGT RAIN  51  49  92 W6        29.91F
6HR MIN TEMP:  51; 6HR MAX TEMP:  54; 6HR PCP:  0.08;

Newark         LGT RAIN  51  45  79 CALM      29.91R
6HR MIN TEMP:  45; 6HR MAX TEMP:  52; 6HR PCP:  0.03;

Laguardia      LGT RAIN  53  48  83 CALM      29.91R
6HR MIN TEMP:  51; 6HR MAX TEMP:  54; 6HR PCP: TRACE;

J F K          RAIN      51  51 100 SE5       29.92F FOG
6HR MIN TEMP:  47; 6HR MAX TEMP:  52; 6HR PCP:  0.11;

Boston         LGT RAIN  49  48  97 S5        29.95F
6HR MIN TEMP:  44; 6HR MAX TEMP:  50; 6HR PCP: TRACE;

Pittsburg      CLOUDY    36  35  96 NW9       30.08R WCI  29
6HR MIN TEMP:  35; 6HR MAX TEMP:  45; 6HR PCP:  0.07;

Akron          FLURRIES  33  29  85 NW13      30.12R WCI  24
6HR MIN TEMP:  33; 6HR MAX TEMP:  37; 6HR PCP:  0.05;

Cleveland      CLOUDY    35  25  66 NW15      30.19R WCI  25
6HR MIN TEMP:  35; 6HR MAX TEMP:  39; 6HR PCP: TRACE;

Cincinnati     CLEAR     28  25  88 NW7       30.22S WCI  21
6HR MIN TEMP:  28; 6HR MAX TEMP:  36;

Columbus       CLOUDY    31  29  93 NW5       30.20R WCI  27
Detroit        CLOUDY    31  18  58 NW13      30.23R WCI  21
6HR MIN TEMP:  31; 6HR MAX TEMP:  35; 6HR PCP: TRACE;

Chicago O`Hare PTCLDY    23  15  71 NW8       30.32R WCI  14
6HR MIN TEMP:  23; 6HR MAX TEMP:  27;

Minneapolis    CLOUDY    16  11  80 SW5       30.33S WCI   9
6HR MIN TEMP:  15; 6HR MAX TEMP:  19;

Indianapolis   CLEAR     23  18  81 NW8       30.28R WCI  14
6HR MIN TEMP:  23; 6HR MAX TEMP:  29;

Toronto Canada CLOUDY    32  21  64 NW22G29   30.08R WCI  19

$$




USA.gov is the U.S. government's official web portal to all federal, state and local government web resources and services.